Find Starlink 34070

NORAD ID: 63913 Int'l Des: 2025-095 Owner: SPXS Country: US Constellation: starlink operational
LEOCIRCULAR

Current View

Loading 3D Globe...

About Starlink 34070

Description loading...

Upcoming Passes

Passes for default location (London). Set your location on the main map for personalized predictions.

Altitude History

Loading altitude history...

Two-Line Element Set

1 63913U 25095Z 26151.17839808 .00030317 00000-0 11059-2 0 9994
2 63913 43.0046 70.3390 0002231 252.4132 107.6476 15.27601715 60394
Epoch: May 31, 2026 • Age: 14 hours

Current Status

Altitude 483.6 km
Velocity 7.63 km/s
Sub-Earth Point 22.55°N, 74.31°W
Launch Date May 10, 2025
Age 1 years
Type internet

Technical Details

Classification Payload
Mass 575.00 kg
Dry Mass 530.00 kg
Total Mass 575.00 kg
Length 0.30 m
Diameter 4.10 m
Span 29.00 m
Shape Box + pan
Manufacturer SPXS
Bus Type Starlink V2MO
Phase Status In Orbit
Owner/State SPXS/US

Most Searched